sat.trackr.live / text

‹ back to catalog

QIANFAN-24

NORAD 61557 · 2024-185F

PAYLOAD ACTIVE UNKNOWN

§ Identity

Operator
Country
PRC
Launch date
2024-10-15
Launch site
TAISC
Launch vehicle
Mass (kg)
RCS (m²)

External: N2YO · Heavens-Above · Gunter

§ Orbital elements

Epoch: 2026-09-22T20:26:48.460992Z

Period
101.11 min
Inclination
88.9839°
Eccentricity
0.0011752
Mean motion
14.24159708 rev/d
Perigee alt
802.9 km
Apogee alt
819.8 km
Semi-major
7,189.5 km
B*
1.7846e-4
RAAN
44.0126°
Arg perigee
92.6137°
Mean anomaly
267.6401°
Rev number
11,045

§ Raw data

QIANFAN-241 61557U 24185F   26265.85194978  .00000426  00000+0  17846-3 0  99962 61557  88.9839  44.0126 0011752  92.6137 267.6401 14.24159708110450

JSON: /api/v1/satellites/61557 · /tle

For live sub-satellite position, see the globe view (requires WebGL).

§ Visibility from observer

Set your observer location to see the next 7 days of passes ≥ 10°. The values pass through the URL so the page stays shareable.

No JS? Fill the form by hand. The geolocation button needs JavaScript.